GFSSE_con_mucape_000.txt.gz
CAPE
1237 1914 3444 3339 3443 3507 3524 3528 3444 3337 2858 2713 2503 2395 2184 2250 2260 2651 2796 2619 2507 2116 1816 1405 1275 1090 1232 1399 1284 1572 1639 1999 1824 1572 1682 1654 1529 1532 1751 1291 1527 626 1045
1722 2179 3562 3513 3345 3348 3439 3566 3733 3658 3139 2995 2859 2469 2288 2628 2036 2215 2597 2493 1856 1776 1633 1505 1399 1386 1258 1502 1563 1517 2022 2344 2417 1851 1771 1556 1335 1124 990 989 1794 914 1041
1926 2335 2809 3517 3470 3706 3708 3568 3674 3619 3135 2878 2884 2631 2391 2511 2212 1968 2361 2169 1706 1500 1205 1298 1175 1359 1239 1329 1592 1402 1954 2584 2566 2056 1913 894 952 1053 1194 1342 1272 1156 1059
2445 2510 2672 3643 3837 4015 4011 4120 4074 3665 3042 2693 2591 2650 2612 2291 1854 2210 2100 1716 1725 1556 1368 1004 1115 1197 1220 1390 1923 1762 1767 2074 2212 1800 1386 514 421 1340 1476 1465 1428 1217 1139
2736 2538 3047 3966 4101 3892 4071 4070 4009 3770 3280 2832 2665 2757 2580 2254 2016 2092 2032 1463 1520 1630 1374 1367 1307 1200 1308 1437 2026 1805 1636 2110 1847 1180 1115 907 487 1632 1604 1489 1237 1198 1290
1973 2759 3563 3900 3997 3728 3944 3853 3819 3668 3403 3057 2911 2953 2603 2489 2173 1854 1624 1694 1384 1613 1558 1293 1170 1348 1399 1615 1880 2260 1813 2120 1605 1389 837 1221 907 2200 1542 1206 1023 1019 1232
2707 2908 2824 3947 4265 4078 3859 3931 3907 3448 3415 3481 3204 2962 2758 2599 2395 2196 1994 1931 1815 1641 1461 1565 1002 1483 1217 1673 1910 2306 2169 1901 1264 934 928 1555 1413 2317 1348 1312 1302 1161 879
2970 2985 2777 4121 4436 4218 3594 3937 4132 4009 3883 3843 3429 3383 2921 2864 2882 2883 1926 1868 1876 1597 1712 1659 1557 1474 1430 1784 1857 2055 2224 1689 1143 1159 1144 1523 1834 2179 1490 1559 1338 1188 505
3085 3408 3122 3111 3335 3813 3752 3856 4236 4260 4161 3942 3805 3709 3333 2852 2718 2492 2461 2135 1885 1851 1767 1737 1677 1581 1621 1637 2005 2155 1962 1538 1115 1179 1237 1286 2167 2268 1600 1435 1710 1335 1162
3091 3699 3541 3411 3431 3303 3493 3984 3988 4158 3972 3642 3308 2827 2636 2664 2679 2397 2972 2894 2084 1832 1688 1523 1930 1887 2150 1992 1785 1710 1569 1044 728 913 1150 1018 2333 2328 1201 1550 1444 1602 1378
3277 3615 3568 3461 3311 3688 3490 3317 3728 3284 2820 2478 2437 2686 3158 2528 2414 2363 2413 2763 1921 1871 1688 1592 1975 1826 1958 1514 1803 1825 1167 369 229 999 841 1946 2264 2211 1545 2033 1816 1806 1572
2690 3343 2933 3253 3221 3278 3114 2879 2589 2596 2373 2516 2598 3052 2787 2294 2959 2407 2153 2117 1690 1669 1706 1890 2015 1905 1838 1350 1257 1146 991 483 658 1534 986 1778 1913 2202 2198 2096 1876 1759 1653
2974 2911 3493 3097 3016 2785 2502 2393 2885 2259 2093 1909 1949 2124 2598 2294 2419 2073 2733 2057 1907 1979 1566 2108 2041 1636 1288 1290 1329 816 696 1242 1360 1155 985 2033 2143 2158 2025 2146 1906 1753 1659
2782 2692 3230 3366 3268 2825 2698 1335 2093 2443 2209 1935 1619 2166 1651 1495 1679 2401 2670 2577 2569 2265 2286 2288 2137 1836 1585 1167 773 1374 1199 1565 1202 1181 1215 1886 2208 2118 2284 1845 1798 1801 1735
2185 2680 2964 3481 3847 3094 1420 1214 1464 2491 2028 2089 2015 1400 1017 972 1451 2048 1750 1942 2172 2355 2904 1880 1904 1516 1678 1295 1653 953 1299 1272 1007 1453 988 1460 2341 2287 2217 2007 1581 1493 1707
2120 2531 3153 3286 3786 3473 3355 2541 2537 2518 1892 1228 1864 1763 1241 1428 2278 2078 1668 1580 1780 2342 1775 2228 1737 1511 1372 1681 1530 1228 1092 1293 1222 1315 996 1296 1581 2411 2605 2301 1936 1624 1540
2549 2701 3019 3355 3426 3848 3944 3689 3316 2806 2313 1534 1820 2174 1359 1527 1743 1610 1371 1244 1927 2572 2004 2065 1867 1900 1602 1653 1823 1482 1355 1189 1728 678 1444 1969 1216 2144 2693 2593 2290 1971 1587
2941 3213 3409 2699 3269 3660 3819 3542 2982 2325 2378 1963 1546 1510 1803 1836 1665 2025 1302 1150 1480 2161 2095 1607 1405 1365 1603 1668 1717 1449 1375 1094 1238 1319 1137 973 871 985 2106 2606 2350 2037 1981
3775 3732 3685 3477 3550 3674 3736 2932 2699 2503 2130 2081 1678 1347 1851 1668 1615 1568 1350 1149 1505 1699 2152 2154 970 1258 1234 1312 1454 1527 1245 1315 1658 1171 1516 984 862 1220 1227 1835 1815 1615 1742
3258 3734 3777 3652 3857 3807 3345 3251 3114 1981 1738 1741 1499 1686 1421 1414 1294 1397 1394 1287 1272 1012 1823 2074 1291 993 900 801 1227 1163 918 1468 2082 1846 1144 882 1007 1384 1172 778 722 926 1731
3176 3681 3847 3667 3971 3759 3857 3125 2109 1531 1585 1524 1294 1711 1564 1138 1058 1110 1041 1196 1447 1362 1388 1626 1515 1064 1129 937 847 772 587 1163 1343 1691 1228 1002 742 1146 1161 885 692 574 413
3364 3529 3599 3399 3847 3340 3180 2621 2437 2375 2098 1508 1921 1495 876 811 895 874 951 1265 1146 790 1243 1518 1214 1058 1375 967 610 622 308 905 1143 1300 1283 1275 651 779 949 870 333 261 371
3317 3503 3542 3356 3068 3030 2350 2556 2189 2080 1260 648 539 1218 1128 882 773 817 878 1079 1057 1486 939 1244 1043 659 1060 1104 901 322 275 722 962 1352 1267 965 704 626 678 672 606 506 352
3199 3075 3648 3702 3633 2859 2005 1802 1955 1481 564 654 682 1209 665 674 1000 805 816 883 1264 1346 664 1366 698 286 421 820 432 660 356 1028 473 553 817 1252 1082 725 484 558 586 787 647
3193 3231 3461 3817 3615 2757 2017 1772 1755 655 985 1183 746 852 1229 1112 1164 747 712 798 1227 1306 1106 851 1060 492 423 323 223 373 428 526 909 396 604 783 706 864 579 492 633 631 797
2321 2814 3198 3601 3269 1821 1443 1629 1543 1311 1057 1262 1224 1015 1178 1316 1245 909 654 899 1007 1059 863 618 838 711 552 320 230 175 198 229 640 421 313 440 512 596 664 618 644 458 545

GFSSE_con_mucape_003.txt.gz
CAPE
1705 2647 3446 3697 3740 3729 3643 3380 3171 2964 2797 2990 2928 2750 2918 2901 2911 2961 2756 2550 2582 2104 1495 1303 1342 1577 1611 1470 1631 1589 1671 1986 1947 1702 1643 1565 1482 1434 1580 1669 901 603 784
1820 2618 3429 3728 3731 3713 3676 3730 3503 3376 2884 2878 2932 2553 2785 2808 2381 2700 2726 2612 2318 2116 1671 1535 1474 1515 1563 1707 1715 2099 2019 2541 2266 1838 1613 1551 1413 1321 1000 1204 928 1210 1161
1972 2702 3130 3536 3576 3654 3815 3998 3822 3563 2986 2790 2906 2700 2602 2750 2268 2191 2362 1914 1695 1614 1643 1495 1527 1446 1555 1738 1373 1907 2115 2348 2337 2042 1611 1153 1004 1285 1496 1325 1181 1088 902
2362 2625 3090 3631 3882 3771 3934 4077 3943 3683 3274 3167 3003 2928 2764 2418 2624 2384 2136 2025 1787 1529 1198 1262 1296 1417 1426 1552 1615 1594 2172 1961 1948 1810 918 808 1095 1437 1526 1370 1235 1178 1098
2569 2743 3254 4273 4166 4271 4374 4309 4060 3747 3202 3210 3107 2756 2385 2179 2256 2406 2091 2269 1912 1716 1508 1342 1251 1285 1379 1651 1850 1524 2261 2074 1603 1267 952 505 823 1635 1457 1372 1255 1205 663
2908 3087 3654 4305 4329 4187 4263 4285 4131 3733 3212 3014 3389 3055 2618 2460 2505 2541 1937 1837 1838 1827 1537 1533 1314 1378 1412 1527 1747 1543 2217 1349 938 1102 910 990 1221 2030 1503 1263 1112 1269 938
2899 3039 3292 4255 4375 4156 4062 4103 4022 3774 3407 3221 3420 3246 2952 2822 2986 2801 2100 2138 1999 1882 1791 1547 1220 1417 1371 1734 1665 1969 2221 1504 797 722 935 1001 1570 2326 1778 1481 1208 1178 774
2548 3038 3263 4372 4428 4275 4085 4109 3924 3748 3710 3613 3736 3533 3259 3166 3355 2938 2700 2186 2047 1868 2130 1700 1326 1601 1328 1708 2008 2282 2030 1738 917 922 863 904 1618 2035 1586 1389 1399 1023 817
2713 2821 3304 3724 3775 4009 4307 4257 4137 4014 3897 3943 4005 3926 3673 3315 2834 2768 3031 2692 2111 1940 1915 1818 1811 1826 1731 1428 1995 2176 1887 1473 990 1045 1045 1024 2028 2238 1698 1545 1640 979 1256
2597 2456 2865 3199 3426 3395 3715 4705 4644 4524 4284 3830 3772 3395 3312 2974 2503 2537 3269 2936 2238 1909 1743 1833 1950 1831 2018 2578 2038 1870 1562 1626 906 731 1044 1040 2146 2588 1692 1528 1533 1490 1230
2660 2429 2576 2800 2952 3123 3430 3623 4540 4130 3745 3434 3159 3073 3083 2431 2487 2374 2742 2814 2136 2000 1899 1626 1884 1799 2114 1947 1778 1838 1750 1119 327 723 1014 1314 2435 2108 1555 2140 1687 1687 1293
2659 2720 2790 3026 2998 2931 3414 3011 3296 2659 2434 2129 2013 2084 2602 2341 2189 2357 2398 2590 2099 1717 1787 2048 2292 1980 1757 1364 1301 1605 1437 971 354 952 998 1518 2178 2413 1750 2266 1812 1715 1302
2493 2535 2684 2455 2513 2344 2388 2212 1962 2130 1832 1699 1790 2124 2039 2028 2021 1895 2057 2261 1773 1843 1614 1723 2317 1795 1423 1371 1163 1132 1100 926 768 956 936 1901 2196 2537 1850 1972 2025 1442 1542
2264 2680 2438 2253 1930 1789 1562 1461 1617 1646 1574 1266 922 1078 1548 1679 1533 1787 1673 1842 1589 1643 1464 1576 1731 1307 1085 1110 900 929 895 712 637 758 700 2056 2059 2426 2119 1738 1696 1605 1488
2059 2710 2493 2259 2009 1781 1346 1047 571 833 1514 1466 1207 1165 1243 1157 1055 1129 1537 1278 1479 1464 1344 1340 1151 944 976 965 808 906 1021 762 756 551 771 1663 2142 2319 2536 1607 1506 1324 1367
2181 2694 2697 2321 2090 1867 1358 385 0 71 1213 1685 1406 1427 970 457 483 856 1249 955 996 835 1012 1114 894 875 564 744 889 702 780 667 582 369 505 307 1509 2274 2572 2187 1990 1539 1426
1976 2609 2680 2758 2352 1861 1519 1436 1024 1160 1493 1232 801 456 1400 961 1075 1060 1071 792 556 856 971 704 996 708 773 927 901 770 821 468 653 726 693 649 868 1824 2314 2451 2208 2298 2206
2109 2421 2796 3102 2744 2651 2668 2326 2180 2007 1805 1260 895 669 1230 919 675 971 914 711 554 910 937 889 662 883 709 804 744 853 1031 931 1106 559 877 720 563 772 2109 2638 2439 2348 2069
2203 2536 2650 2858 2878 2959 2768 2497 2088 1721 1682 1521 1322 1071 1071 952 803 677 1029 713 466 557 778 881 580 689 579 767 812 590 772 701 731 948 830 775 729 909 1151 2186 2797 2449 2103
2692 2803 2758 2922 2926 2733 2735 2028 1783 1022 943 789 935 807 717 833 990 782 705 773 609 430 732 871 451 269 480 473 1062 720 567 732 783 531 784 758 587 758 1019 708 1698 2006 2076
2522 2681 2694 2667 2639 2372 2437 1861 1459 1132 898 809 637 689 725 576 489 621 606 633 598 518 370 675 594 390 489 570 484 405 487 428 418 651 718 583 748 880 801 811 819 1024 1268
2379 2428 2397 2501 2450 2083 2079 1640 1170 744 738 599 429 473 415 306 313 492 568 617 586 644 640 577 552 451 423 369 205 177 110 255 489 734 871 534 414 627 641 758 689 679 455
2268 2338 2157 2215 2261 1919 1519 1210 1055 861 635 410 338 232 290 259 198 205 285 437 669 507 464 528 483 297 360 529 327 87 104 74 304 524 926 602 606 465 598 547 459 354 281
2041 2272 2146 2180 2012 1529 1319 1069 928 861 676 167 244 152 191 324 240 280 216 389 603 655 482 409 397 314 275 262 403 339 226 225 110 112 369 667 598 523 473 333 396 327 281
2320 1883 777 2338 2022 1531 1494 921 656 534 445 322 162 77 79 74 154 370 324 334 534 523 669 514 342 245 180 195 113 111 179 230 216 144 135 224 623 492 356 382 302 394 444
2341 1676 979 1990 1709 1059 714 594 519 534 311 142 45 122 203 92 185 479 343 286 388 575 595 545 400 224 153 74 61 87 97 139 113 161 174 81 129 284 336 261 271 268 324

GFSSE_con_mucape_006.txt.gz
CAPE
2145 2934 3674 3699 3416 3252 3080 3101 2969 2941 2973 3034 3372 3438 3167 2766 2857 2886 2914 2342 1907 1694 1255 1421 1551 1516 1513 1281 1788 1640 1437 1506 1711 1433 1375 1394 1292 1225 1259 852 810 382 632
2188 2805 3576 3753 3786 3579 3620 3452 3116 3194 2880 3024 3109 3197 3144 3170 2875 2763 2666 2431 1899 1647 1552 1481 1626 1639 1694 1536 1670 1629 1800 2106 2193 1583 1388 1376 1478 1308 1025 831 679 740 747
2185 2724 3338 3622 3821 3766 3850 3686 3408 3293 2880 2765 3068 3007 2868 3084 2855 2244 2311 2238 2059 1886 1744 1686 1543 1734 1891 1336 1771 1774 1837 1975 2407 2195 1585 879 678 999 1085 915 837 903 724
2248 2622 2918 3541 3762 3985 3995 3859 3578 3267 2984 2941 2838 2700 2865 2780 2566 2353 2084 1884 1666 1664 1530 1580 1546 1499 1823 1500 1550 2052 1809 1905 1814 1641 776 899 817 1284 1120 1005 1023 846 829
2239 2609 2906 3779 3768 3952 4171 3959 3768 3405 3325 3323 2957 2567 2346 2499 2569 2326 2205 2114 1969 1525 1416 1379 1429 1515 1622 1723 1387 2169 2022 1928 1818 1038 584 866 966 1370 1249 1129 1032 963 833
2590 2721 3782 3909 3991 4253 4252 4075 3773 3381 3262 3442 3197 2524 2298 2186 2514 2423 2389 1948 2122 1618 1593 1564 1422 1341 1586 1751 1612 2161 2098 1505 1156 810 661 817 1142 1551 1294 1185 1151 443 815
2543 2948 3459 4007 4176 4362 4332 4111 3825 3352 3135 3375 3259 2566 2398 2337 2629 2353 1794 2082 1975 1864 1710 1763 1449 1567 1519 1594 1759 1874 1740 806 689 561 650 752 1135 1898 1200 1146 1233 806 748
2474 2812 3124 3895 4032 4114 4268 4166 3880 3549 3232 3298 3310 2958 2704 2671 2782 2335 2389 2167 2207 1950 2041 1772 1505 1543 1606 1898 1679 1925 1600 996 916 751 616 583 1672 2123 1369 1260 1256 876 753
2694 2815 3021 3182 3092 3630 4098 4029 3894 3737 3526 3447 3559 3557 3200 2932 2653 2476 2607 2457 2213 2007 2104 1877 1633 1781 1555 1682 1946 1915 1720 953 803 752 858 554 1750 2086 1485 1477 1167 922 341
2526 2896 3185 3176 2868 3373 3303 4055 3905 3814 3574 3041 3175 3185 3136 3005 2564 2675 2844 2811 2235 2160 1990 1899 1883 2040 2337 1660 1652 1757 1634 1235 487 665 766 639 1779 2337 1565 1495 1019 1228 951
2262 2557 2904 3098 3108 3075 3300 3661 4153 3600 3171 3133 3159 3311 3242 2399 2053 2265 2759 2470 2275 1991 1952 1828 1688 2080 1876 1784 1649 1825 1681 1080 525 467 815 1199 1977 2596 1802 1816 1772 1211 1063
2193 2383 2760 2775 2628 2615 3184 3203 3625 3245 3231 3015 2856 2804 2464 2118 2154 2141 2120 2259 2227 2056 2071 2053 2241 1853 1633 1544 1362 1464 1448 1131 362 594 759 1392 1991 2556 2231 2293 1789 1122 679
2360 2354 2457 2591 2536 2622 2891 2828 2824 2450 2524 2309 1972 1910 2220 2176 2128 2228 1702 1839 1741 1795 1533 1888 2158 1868 1493 1274 1190 1117 837 695 416 610 746 1380 1736 2290 1733 2063 1678 1512 1032
2402 2508 2494 2573 2583 2629 2391 2388 2224 2016 1698 1587 1576 1669 1889 1876 1599 1503 1527 1441 1366 1384 1319 1284 1510 1428 1211 1189 1142 840 665 549 509 418 730 1220 1741 2098 1843 1691 1601 1348 1354
2219 2455 2589 2622 2432 2248 2025 1726 1529 1516 1236 966 801 702 1012 1391 1256 1421 1452 1251 1261 1278 1242 1243 1200 1071 1014 1072 1021 724 617 551 443 373 247 828 1720 2200 2163 1755 1370 1388 1366
2314 2368 2407 2207 1862 1574 1349 1096 1135 1130 1273 1238 1102 637 715 643 829 849 1143 989 1063 927 890 1046 924 908 732 746 755 732 715 417 497 456 350 483 1323 2168 2215 2297 1740 1362 1256
2184 2452 2276 1993 1826 1710 1476 1036 580 373 250 1240 1429 1177 958 751 500 298 605 787 728 749 632 788 717 739 710 643 715 679 565 516 396 494 417 388 317 1821 2322 2553 2285 2175 1927
2080 2502 2341 2146 1814 1590 1345 904 735 272 983 1233 1205 978 466 997 935 749 671 958 656 493 569 524 511 645 597 671 812 699 567 304 412 549 311 374 364 602 2017 2252 2497 2296 2301
2161 2368 2375 2302 1865 1700 1661 1692 1717 1641 1683 1582 1336 885 376 897 881 651 818 709 585 467 539 561 425 546 513 462 499 584 666 513 619 795 552 473 485 394 350 1887 2282 2224 2144
1787 2043 2297 2522 2275 2156 2195 2107 2119 1800 1620 1497 1246 1100 1027 856 783 673 463 662 594 458 510 436 430 499 407 427 539 689 736 499 420 567 630 622 591 559 582 725 1693 1764 2213
1833 2025 2096 2191 2318 2318 2149 1770 1545 1156 710 730 747 881 706 598 766 763 461 358 528 496 302 447 460 271 237 336 429 386 423 515 683 468 392 649 520 447 588 600 497 972 1215
1917 1982 1984 1870 2037 1902 1898 1631 1119 945 651 445 403 351 364 289 319 266 281 174 264 440 372 311 408 373 247 252 251 190 197 293 232 266 584 514 514 547 563 512 491 578 649
1132 860 1486 1743 1813 1631 1560 1285 916 744 587 362 195 135 124 185 103 100 122 108 108 333 421 284 309 334 264 331 232 91 80 70 175 324 508 621 480 436 530 545 446 311 380
175 556 1183 1485 1760 1475 1222 902 569 380 349 194 90 57 34 49 77 96 104 114 121 205 370 358 352 304 201 259 300 333 180 167 70 20 75 308 474 457 363 379 483 363 297
88 483 857 1480 1468 1148 911 577 340 102 80 89 12 0 17 32 30 36 118 98 120 225 299 339 335 299 208 154 209 232 229 174 102 55 26 16 212 501 538 481 406 325 244
1386 1014 1097 1601 1153 965 720 225 99 20 0 0 2 32 55 20 26 19 106 198 164 285 312 363 400 281 230 203 111 46 85 123 100 64 52 44 44 48 252 320 332 367 276

GFSSE_con_mucape_009.txt.gz
CAPE
1881 2723 2904 3030 2808 3055 2863 3006 2971 3054 2977 3193 3156 3061 2970 2930 2767 2691 2430 2096 1788 1596 1592 1585 1563 1413 1282 1284 1583 1271 1392 1434 1334 1090 931 981 1059 917 1055 780 511 259 336
1980 2711 3578 3433 3322 2889 3182 3313 3175 3110 3118 3209 2979 2934 2885 3056 2753 2290 2569 2098 1668 1438 1583 1631 1638 1523 1267 1438 1640 1337 1335 1778 1740 1029 791 1003 1010 807 718 600 296 375 530
2322 2710 3042 3370 3570 3374 3186 3295 3306 3182 2950 3090 3394 3237 3143 3247 2741 2472 2349 2061 1839 1721 1686 1667 1605 1771 1405 1545 1583 1482 1593 1712 1971 1463 1249 727 703 805 749 669 509 368 399
2210 2634 2838 3520 3631 3581 3519 3439 3386 3246 3018 3140 3124 3005 3168 3153 3059 2591 2552 2285 2108 1876 1873 1738 1603 1812 1353 1528 1814 1603 1723 1502 1331 1476 686 583 692 992 749 761 767 676 452
2215 2492 2739 3790 3841 3697 3767 3566 3489 3406 3383 3309 2947 2587 2621 2770 2540 2441 2219 2021 1912 1873 1635 1739 1605 1623 1395 1523 2045 1701 1747 1602 1600 899 666 696 854 974 917 955 645 761 580
2279 2413 3074 3846 4059 4101 3949 3760 3519 3516 3514 3474 3092 2466 2453 2715 2628 2515 2496 2331 2102 1788 1698 1610 1422 1587 1564 1374 2035 1932 1992 1609 1114 570 741 988 965 1369 1022 977 839 715 530
2360 2433 3079 3759 3806 3959 4166 3925 3686 3440 3591 3336 2909 2464 2327 2620 2761 2612 2178 2412 2114 1954 1943 1677 1537 1503 1563 1413 1720 2011 1861 1202 659 574 575 837 829 1670 1123 1082 459 550 674
2462 3056 3185 3792 3968 4176 4179 4055 3863 3446 3280 3061 2881 2553 2521 2705 2847 2330 2203 2194 2328 2103 1975 1730 1720 1661 1731 1604 1502 1929 1635 929 872 639 568 819 1306 1803 1153 1145 718 481 846
2557 2716 2986 3228 3574 4112 4389 4260 3997 3542 3379 3509 3285 3284 2997 2817 2588 2233 2642 2374 2323 2146 2180 1770 1686 1636 1634 1901 1560 1557 1624 871 638 579 606 740 1908 1803 1289 1419 959 564 948
2506 2669 2913 3038 2931 3349 3780 4327 4074 3732 3494 2875 2905 3021 2958 2935 2553 2648 3041 2829 2309 2137 2169 1934 1810 1817 1851 1640 1952 1620 1357 878 534 579 564 498 1902 1813 1586 1422 1172 443 541
2275 2782 2916 2920 2690 3007 3275 3519 3804 3580 3123 2815 2933 3042 3221 2644 2282 2396 2551 2504 2342 2139 2041 2007 1800 1588 1595 1611 1544 1814 1507 557 431 535 509 1004 1882 1962 1620 1536 1592 1019 486
2336 2631 2841 2807 2923 2750 3174 3097 3370 2811 2839 2744 2861 2830 2846 2538 2080 2246 2555 2349 2328 2206 2153 1959 1965 1843 1694 1131 1141 1384 1160 791 318 282 613 1362 1769 1838 2080 2175 1625 1217 1024
2070 2226 2633 2655 2621 2724 3160 3331 3056 3046 3001 2997 2821 2752 2649 2003 2120 2502 2057 1950 2023 2094 1770 2125 2125 1924 1375 917 855 944 1047 639 249 666 902 1542 1873 2025 1978 2094 1523 1063 764
2164 2240 2550 2679 2389 2473 2581 2646 2646 2558 2763 2612 2426 2110 2117 2040 1962 1907 1580 1653 1420 1586 1390 1560 1606 1588 1440 1205 950 678 677 529 204 455 697 1370 1864 2333 2310 2024 1745 1438 1152
2327 2316 2383 2575 2380 2328 2259 2286 2260 2099 1839 1674 1478 1453 1685 1815 1577 1670 1433 1375 1196 1244 1156 1149 1179 1078 1063 973 993 658 596 438 351 418 384 1147 1868 1868 2080 1979 1653 1474 1470
2293 2385 2399 2432 2468 2381 2239 2075 1823 1775 1386 1145 941 943 1122 1344 1273 1198 1137 1026 1028 1099 1089 1130 969 990 808 784 919 827 495 463 399 381 383 363 1665 1637 2181 2250 1841 1543 1355
2207 2150 2409 2533 2586 2374 2192 1959 1504 1295 1312 1229 993 899 490 490 621 853 785 812 819 826 809 819 779 637 714 660 617 706 595 419 393 392 289 183 539 1508 2072 1999 2388 2038 1925
2193 2250 2239 2306 2241 2050 1531 1433 1138 952 686 617 1038 1188 1036 501 454 392 357 371 456 541 652 536 615 546 524 500 532 609 639 491 392 356 322 274 234 312 912 1835 2055 2214 1995
1968 2180 2280 2204 2089 1730 1521 1280 1037 655 181 320 905 1130 872 595 518 717 565 365 704 552 494 466 373 431 433 461 455 457 556 454 286 502 369 255 255 261 270 997 1576 2062 1857
1879 2192 2292 2153 2001 1589 1356 1216 993 1286 1219 977 1000 960 865 642 524 805 661 614 591 522 410 380 439 335 372 348 381 711 531 494 310 450 430 378 294 313 291 393 546 1065 1795
895 1714 2004 2098 2060 1731 1444 1516 1581 1626 1406 1217 1081 984 791 730 587 521 518 415 412 385 388 447 419 275 333 281 335 325 446 589 487 483 547 525 518 455 373 388 368 994 1260
108 906 187 448 660 1570 1652 1581 1552 1106 928 748 602 497 434 309 395 421 291 252 311 211 270 376 346 224 142 214 242 219 221 335 449 403 412 512 656 546 508 521 476 411 534
332 426 23 58 463 794 1531 1528 1194 948 787 602 366 250 147 116 164 140 162 135 166 167 142 282 279 309 185 121 174 100 97 78 176 230 269 488 478 568 529 411 368 364 331
383 330 0 0 164 894 1353 1145 976 682 377 249 79 37 31 3 9 75 81 124 122 106 115 198 329 248 206 149 155 156 128 83 49 145 277 441 633 510 436 435 453 449 363
44 340 0 96 290 980 1362 1056 577 301 134 90 7 0 0 1 0 10 77 99 134 120 89 199 281 304 181 90 90 202 160 184 100 43 15 12 198 348 403 371 334 289 339
133 157 145 433 857 1095 1021 543 166 55 0 34 3 5 1 2 0 31 22 100 127 119 107 153 289 330 295 219 98 120 128 122 117 86 61 23 2 6 129 331 407 384 296

GFSSE_con_mucape_015.txt.gz
CAPE
1168 1826 3015 2812 2850 2789 2587 2966 3368 3511 3493 3506 3490 3179 3192 2952 2506 2396 2334 2038 2051 1975 1868 1634 1186 1313 1391 1554 1216 1190 1477 1359 1164 1230 1329 1123 1030 864 763 297 187 260 392
1236 1807 2967 3001 2893 2796 2927 3083 3273 3488 3484 3541 3510 3505 3286 3160 2548 2426 2312 2064 2132 2050 1889 1669 1510 1485 1366 1552 1177 1487 1584 1593 1772 1259 1131 1129 1099 841 500 119 588 742 773
1244 1534 1960 3012 3075 2656 2908 3217 3136 3218 2967 3169 3425 3225 2922 2997 2483 2317 2207 2052 1910 1812 1789 1745 1661 1565 1335 1495 1354 1583 1626 1824 1677 1151 1082 752 909 614 382 124 771 58 359
1234 1401 1550 3112 3088 2911 2846 3112 3173 2916 2605 2749 2939 2877 2722 2650 2530 2308 2227 1996 1815 1859 1915 1764 1788 1570 1579 1457 1763 1706 1371 1361 1702 1290 801 424 374 706 822 711 452 581 530
1418 1493 1876 3400 3341 2781 2865 3087 3230 3248 2820 2650 2637 2643 2785 2910 2631 2395 2255 2086 2042 2069 1926 1863 1871 1652 1599 1541 1598 1685 1929 1719 1476 958 952 909 745 849 773 663 447 488 457
1690 1611 2845 3497 3236 3004 2860 3150 3197 3188 3253 3012 2799 2903 2998 2967 2464 2268 2038 1976 2101 1995 1940 1714 1753 1564 1451 1691 1696 1691 1891 1645 1469 854 1016 967 838 1082 1013 743 537 317 477
1960 1864 2529 3572 3530 3430 3488 3416 3143 3258 3042 2845 2836 2988 2973 2752 2799 2635 2540 2295 2057 1985 1816 1533 1533 1658 1561 1810 1822 1843 2009 1615 896 1097 1089 831 941 1555 1042 903 748 458 726
2026 1939 2350 3269 3622 3668 3428 3139 3087 2987 2868 2681 2583 2665 2756 3009 2914 2948 2477 2329 2191 1923 1823 1712 1532 1725 1558 1723 1965 1951 2189 1362 1137 997 878 1043 1221 1570 1181 1000 1012 350 764
2162 2247 2574 2802 3234 3424 3619 3370 3294 3020 2883 2911 2862 3114 3011 3074 2770 2663 2368 2472 2419 2095 1941 1657 1962 1675 1750 1642 2039 1862 1827 1201 846 1133 1060 716 1584 1549 1317 879 1050 654 821
2379 2522 2759 3005 3105 3250 3102 3569 3583 3400 2991 2992 2854 2792 2679 2663 2754 2306 2814 2705 2544 2340 2188 1918 1925 2358 2269 2129 1996 1688 1586 1404 1034 1208 1318 592 1912 1331 1452 922 570 1132 1026
2310 2420 2661 3017 3223 3708 3650 3758 3753 2970 2899 2869 2886 2761 2741 2320 2310 1851 2636 2528 2429 2156 2110 1988 1844 1971 2108 2073 1837 1952 1369 982 1061 1255 994 1444 2137 1417 1601 1505 1287 1255 1026
2096 2499 2601 2946 2858 2897 3165 3526 3607 3088 3075 3091 3189 3154 2609 2343 2624 1940 2470 2525 2245 2199 2202 2042 1790 1875 1824 2341 1367 1542 905 1226 1102 1302 1163 1509 1920 1595 1587 1706 1821 1018 1110
2358 2387 2756 2930 2925 2899 3148 3334 3317 2834 3041 3153 3104 3467 3005 3052 2739 2206 2382 2147 2181 2444 2115 2024 1847 1793 1680 1959 2246 1558 1654 1230 913 1036 1181 1413 1962 1676 1671 1512 1706 929 722
2321 2042 2404 2709 2910 3071 3217 3302 3543 3568 3578 3329 2583 2546 2551 2420 2453 2437 2227 2479 2610 2315 2610 2393 2055 1984 1980 1821 1575 1717 1690 1583 828 922 995 1472 1796 2042 2243 1654 1561 1529 1206
2513 2380 2386 2574 2761 2987 3071 2976 3195 3004 2694 3210 2917 2153 910 273 499 2866 2342 2350 2222 2261 2263 2300 2261 2281 2066 1991 1848 1667 1368 1323 1251 750 743 1549 1837 1893 2218 1877 1402 1506 1396
2530 2449 2460 2332 2668 2856 2895 2966 2951 2774 2689 2280 2151 2372 1350 485 949 2373 2366 2519 2427 2351 2057 2042 1875 1907 2131 1931 1598 1646 1659 1550 1330 947 493 1053 1883 1848 2047 2261 1435 1838 1389
2529 2563 2182 2386 2412 2614 2702 2891 2874 2812 2153 2111 1901 1766 1645 2095 2148 2018 2280 1905 2006 2641 2160 2067 2001 1991 1894 1879 1764 1591 1579 1587 1475 1109 736 872 1123 1405 1670 1314 1506 1551 1830
2660 2428 2304 1958 2161 2409 2516 2393 2146 1887 1797 1703 1831 1672 1700 1601 1593 1793 2177 1476 1630 2096 2197 1858 1888 1591 1457 1480 1695 2144 2069 1611 1609 1443 981 732 1112 926 1187 1680 1256 1264 1107
1396 987 729 1105 1530 1562 1595 1742 1983 1996 1699 1513 1468 1608 1840 1779 1739 1629 1309 1734 1733 1496 1496 1425 1770 1679 1322 1148 1222 1614 1804 1783 1821 1545 1375 917 941 1064 877 1270 1112 1113 946
749 527 483 434 490 1332 1418 1075 1248 1285 1171 850 778 812 859 900 1319 1672 1259 1297 1432 1040 1206 1268 1258 1150 1293 1075 787 887 1769 1300 1799 1518 1470 1049 906 1139 1212 1127 1121 826 1079
686 233 420 389 276 318 851 1534 1771 1853 2048 1707 1786 1424 1125 1294 1427 1562 1403 1329 1132 996 1280 1481 1773 1271 1154 1148 902 787 1196 1172 1291 1490 1476 1063 1157 1177 1300 1317 991 992 944
725 487 107 374 191 72 462 708 1329 1330 1198 1070 842 824 762 711 788 989 1062 1351 1272 1227 1067 1397 1351 1385 965 1136 662 931 735 1025 1085 1249 1343 1413 1434 1400 1288 1353 1287 1402 1313
388 336 335 188 140 31 37 1004 1034 1121 1042 1066 761 577 456 356 528 682 561 792 1422 496 439 605 1337 883 1071 1006 1089 1171 832 310 1107 1215 1577 1499 1492 1620 1461 1658 1575 1341 1490
205 120 93 68 21 34 286 1273 1158 1213 1012 506 273 197 245 164 179 316 691 647 803 701 199 281 1209 1551 1776 938 877 812 554 342 1178 1027 983 1329 1451 1646 1629 1744 1525 1448 1752
508 392 67 0 7 33 658 1449 1075 758 267 169 300 347 450 319 209 240 368 710 988 913 631 149 385 1436 1278 1624 891 771 946 1038 548 301 454 690 908 1106 1273 1632 1477 1536 1635
309 257 9 38 175 1009 1390 815 438 266 360 316 319 254 244 182 235 471 413 607 814 961 1053 1100 978 1110 1148 1149 1086 826 676 849 1318 1118 715 599 401 394 556 886 1170 1040 1042

GFSSE_con_mucape_021.txt.gz
CAPE
1248 1303 3124 3009 3070 3326 3461 3525 3498 3387 2769 2647 2424 2352 2365 2152 2208 2128 2059 2141 1941 1744 1499 1334 1219 1125 1310 1320 1308 1503 867 1383 1411 1346 1265 1192 1054 944 637 875 1089 547 686
1567 1637 2876 3164 2966 3166 3381 3433 3602 3501 3132 2855 2748 2516 2475 2411 2387 2227 2195 2202 2096 1962 1625 1456 1423 1508 1633 1302 1499 1684 1286 1601 1433 1466 1333 1199 1049 640 275 341 1061 791 366
1330 1517 1643 3187 3274 2894 3136 3574 3824 3750 3286 3031 3007 2634 2603 2499 2489 1952 1936 2112 2176 2040 1829 1811 1533 1609 1627 1552 1517 1389 1392 1542 1499 1275 1437 657 564 238 819 1016 769 844 424
1287 1221 1595 3046 3302 2965 3075 3438 3522 3573 3105 3223 2985 2791 2739 2668 2495 2275 2249 2121 2000 2004 1872 1811 1703 1661 1622 1467 1745 1495 1654 1303 1191 1425 1210 615 115 345 946 200 488 589 728
1347 1410 2079 3197 3148 2868 3039 3403 3517 3477 3165 3088 3003 2848 2682 2566 2413 2357 2273 2040 2082 2061 1890 1990 1772 1646 1360 1657 1754 1678 1308 1056 1112 1323 1233 949 431 473 932 298 697 402 583
1261 1801 2527 3123 2669 2526 2746 2978 3077 3026 3031 2951 2826 2561 2408 2425 2362 2314 2266 2093 1988 2083 1903 1869 2000 1833 1621 1736 1718 1560 1432 1441 1424 1352 945 817 1213 1234 1004 809 285 900 711
1186 2464 1964 3284 3152 2953 2840 2865 2788 2794 2760 2686 2569 2569 2806 2871 2632 2366 2080 2086 2006 1729 1674 1680 1857 1765 1723 1871 1813 1713 1756 1725 1260 1148 1042 845 1165 1563 914 457 568 810 704
1255 2043 1776 3125 3137 2773 2632 2873 2892 2688 2630 2564 2812 2913 2972 2651 2646 2579 2384 2100 1878 1800 1690 1428 1674 1777 1776 1994 1855 1810 1810 1732 1179 710 810 1369 1424 1923 1055 715 468 700 543
1450 1973 1973 2031 2526 2712 2657 2784 2857 2797 2718 2782 2868 2971 2792 2775 2542 2400 2261 2220 1922 1731 1587 1525 1590 1934 1757 2057 1949 2006 1653 1600 1278 855 554 1439 1965 1852 1066 1233 707 1003 898
1957 1971 2275 2324 2299 2319 2480 3003 2820 2827 2572 2519 2451 2439 2525 2349 2245 2502 2130 2308 2028 1827 1750 1635 1630 2080 1839 1817 2277 1832 1694 1792 792 913 839 1254 1936 1718 1410 1264 1125 498 891
1960 1761 2518 2488 2784 2785 2513 2546 2936 2789 2790 2790 2671 2601 2360 1830 2273 2561 2052 1891 1996 1869 1755 1633 1706 1722 2071 1775 1813 1840 1582 691 499 668 725 1628 2014 1559 1440 1397 1429 799 969
1547 1459 2103 2297 2668 2567 3019 3269 2298 2283 2344 2445 2399 2502 2482 2595 2415 1690 2308 2233 1946 1958 1848 1677 1560 1523 1163 921 1331 1626 884 469 890 774 1100 1479 1875 1509 1556 1659 1579 1757 1112
1922 1772 1949 2351 2694 2753 2765 3225 2903 3423 3320 2104 2240 2636 2276 2288 2331 1853 2640 1996 1528 1632 1193 1526 1336 1079 1042 542 1243 1151 846 644 1148 1613 1127 1850 1898 1455 1595 1637 1771 1295 1374
1933 2068 2083 2941 2299 2503 2541 2263 3238 2419 2466 2738 3196 2698 2854 2421 2383 2015 1555 1590 1920 2901 1687 1434 1360 1250 1615 1482 1750 1181 1198 1131 745 698 1288 1947 1861 1956 1510 1825 1496 1285 1093
1492 1623 2238 2949 2641 2736 2749 2437 2564 2939 1556 2476 2074 1903 1151 1338 1877 634 158 158 814 1601 1644 1591 1176 1687 1773 1696 1597 1509 1318 1144 1077 823 887 2174 2003 1746 1899 1878 1728 1317 970
1493 1651 2009 2275 2652 2498 2938 2678 3549 2308 1782 1633 1891 1671 1847 1361 1402 671 345 151 358 971 1512 699 1556 2042 1177 1426 1699 1400 1609 1862 1450 1327 813 1117 2194 1795 1771 1757 1857 1434 657
1711 1881 2268 2595 2460 2733 2433 2282 2190 1542 1262 2062 1588 2575 1916 2018 1622 1297 866 751 314 303 178 190 713 1717 1669 1915 1296 1755 1327 1829 1689 1444 1532 1362 1420 1886 1928 1807 2147 1895 1493
1994 2142 2296 1863 2291 2493 2918 2189 1635 1649 1564 2108 2099 2625 2044 2356 2239 2026 1590 1191 812 101 0 44 1207 920 1724 1675 1956 1709 1652 1461 1434 1736 2192 1412 812 840 1714 1701 1700 1768 281
2370 2644 2606 2110 1948 2924 2346 1941 1862 1702 1793 1362 965 1295 2126 1941 1648 1883 1289 1499 1495 716 689 1759 1403 1489 1528 1231 1297 1719 1691 1831 1266 1264 1548 1558 1492 1444 1195 1462 1133 1123 404
2779 3000 2437 1591 1943 2861 2620 2341 1628 1254 2012 1657 1766 2000 2193 2136 1861 2532 2432 1604 3073 2000 1325 1484 1669 1535 983 814 475 881 1779 1346 1387 1310 1521 2125 2251 1613 1362 2227 1650 569 798
3024 2977 2491 2224 1827 1482 1237 1733 1914 1271 2238 2017 2223 1688 1774 1912 1784 2364 2600 2464 2518 2281 2146 2581 2020 2213 1033 963 1571 931 622 848 1618 1554 1399 1249 1812 1700 1187 2382 1589 1461 823
2804 2396 2171 1862 905 784 1657 1606 2080 1745 1909 2165 2540 1920 2026 1680 1552 1817 2302 2099 2331 2233 2354 2381 2293 2191 1949 2213 1049 612 388 135 658 1333 1404 2353 1731 2391 1667 2008 1790 1721 1068
2518 2034 2055 1169 855 339 911 1720 2815 2304 2314 2576 1947 981 915 988 922 1262 1298 1966 1918 2487 2407 1777 1970 1571 1740 2103 1681 652 235 86 107 1916 2087 1462 1919 2804 2047 2164 1396 1894 1776
2228 2162 1771 1797 1082 571 478 474 1777 2340 1759 1137 746 813 1063 888 661 872 1115 874 1736 2260 1875 1929 2178 1583 1807 1722 1937 1109 1625 994 660 573 2104 2200 2572 2441 2354 1238 755 1064 2123
1387 1411 1595 1455 1048 1263 1455 2043 2252 2448 610 582 631 819 1636 1751 917 969 738 771 1061 1872 1926 1619 1884 2129 1974 1883 1595 1998 1536 465 786 750 1043 867 1477 1287 2037 1549 1208 1537 1916
1606 1230 1304 1551 1460 1487 1495 1862 1995 1038 842 766 909 716 416 370 800 972 900 1012 1526 1271 1303 1996 1859 1616 1885 844 1395 1718 1761 1079 545 814 1435 997 322 725 992 699 1434 1556 1672

GFSSE_con_mucape_024.txt.gz
CAPE
1052 1460 2959 3173 3283 3518 3607 3660 3390 3192 2945 2885 2794 2768 2699 2416 2165 2086 2378 2658 2208 1887 1580 1428 1112 1102 1302 1316 1522 766 1296 1437 1288 1254 1193 1063 1013 798 938 633 1125 324 611
1187 1375 3073 3350 3509 3640 3706 3677 3518 3340 3081 3071 2986 2932 2885 2711 2324 2151 2094 2047 2049 1819 1561 1443 1394 1320 1638 1362 1638 1216 1773 1472 1600 1291 1153 1061 581 398 619 543 1312 220 193
1287 1366 1548 3370 3614 3699 3765 3724 3611 3381 3129 3159 3139 3049 2888 2622 2360 2087 2080 2122 2290 2008 1726 1505 1549 1664 1572 1500 1570 1358 1433 1968 2090 1336 1230 553 221 961 1072 736 1073 302 644
1301 1029 1420 3352 3507 3557 3705 3838 3812 3488 3254 3308 3232 3077 2967 2658 2409 2224 2089 2100 2143 2027 1934 1860 1684 1772 1602 1723 1482 2061 1651 1601 1448 1256 1366 164 11 960 652 957 984 465 404
1045 1289 2224 3561 3466 3192 3501 3834 3825 3668 3502 3414 3201 2883 2789 2669 2378 2343 2200 2086 2139 2071 1944 1873 1727 1698 1477 1774 1498 2276 1659 1253 1261 801 590 514 0 743 153 461 374 773 747
1167 1894 2817 3251 3199 3173 3163 3565 3679 3607 3551 3446 3099 2742 2630 2511 2548 2404 2224 2014 2022 1972 1748 2020 1877 1721 1484 1797 1596 2148 1880 1244 1043 1254 928 1281 329 1123 507 463 537 711 794
2159 1846 1858 3089 3139 3101 3195 3298 3319 3351 3307 3019 2658 2435 2458 2491 2517 2430 2255 2087 1694 1768 1760 1894 2108 1721 1625 1807 1610 2154 2016 1564 963 1422 808 947 1075 1713 755 1041 906 717 592
2144 1597 1728 2908 2953 2818 2772 2674 2702 2698 2680 2579 2462 2594 2795 2700 2515 2267 2199 2064 1896 1654 1203 1535 1943 1727 1871 1970 1884 1948 2177 1645 800 758 570 1429 1555 1693 1100 506 645 523 770
1582 1834 1990 1918 2399 2431 2532 2683 2662 2558 2423 2742 3003 2944 2637 2577 2480 2479 2296 2061 1774 1765 1519 1410 1686 1854 1981 2005 1961 1869 1892 1578 917 922 916 842 1779 1867 1217 579 519 713 468
2078 1992 1992 2262 2383 2418 2333 3066 3148 3069 2562 2614 2756 2814 2585 2639 2514 2423 2559 2511 1790 1644 1586 1433 1495 2216 2148 2074 1948 1992 1622 1560 849 565 667 913 1515 1950 1097 1042 646 1031 877
2146 2405 2267 2695 2811 2881 2758 2666 3164 2609 2486 2397 2325 2240 2413 2023 1911 2114 2036 2542 1745 1537 1590 1594 1726 1775 2051 1732 1880 1906 1494 844 271 702 757 977 1369 2065 1558 1754 1589 1038 851
1657 2032 1971 2603 2811 3018 2988 2729 2640 2564 2568 2745 2818 3121 2544 2186 2190 1863 1967 2609 2007 1838 1777 2046 2256 1835 1844 1095 1405 1617 1295 504 541 748 182 173 1361 2022 1901 2048 1926 1419 1112
2121 1971 2184 2612 3275 2930 2606 2937 3168 2911 3252 1856 2030 2101 2736 2308 2321 2281 2426 2015 1887 2001 1592 1961 1854 1470 1103 837 966 1291 857 723 749 1106 935 1074 1646 2029 1763 2152 1798 1850 1292
2059 1865 2490 3162 3157 3198 2310 2368 2388 2034 2254 1913 1440 2294 2240 2752 2977 2423 2388 1946 1780 1825 1586 1689 973 1272 1268 874 1446 1479 1379 1231 790 1279 1084 1034 1115 1719 1892 1825 1780 1385 1857
2169 2468 2568 3238 3241 3437 2811 1153 1075 1460 724 643 748 1884 2346 2287 2667 2780 1771 892 908 2021 1000 593 557 241 463 1173 1639 1539 1113 943 1161 1255 1233 1747 1411 1701 2069 1988 1860 1386 1223
2267 2620 3041 3240 3874 3291 3390 2981 3177 1105 442 56 89 1794 2278 1845 2793 2362 1428 1023 656 1013 1139 416 274 113 81 325 1489 1608 1817 1703 1563 1206 887 1279 1612 1788 2048 2410 2274 1642 873
2027 2296 2838 3401 3520 3519 3441 3395 3438 2238 1172 671 730 1423 2316 2510 2606 2197 1330 813 1018 1021 418 21 77 0 0 320 922 1513 1781 1695 1673 1975 1584 1370 1569 1890 1597 2032 2416 2235 2019
2465 3062 3401 2198 3158 3156 2754 3191 2575 2384 3100 2296 2933 1356 2424 2397 2714 2541 1885 2039 1721 982 147 3 0 1 106 283 355 1012 1189 1464 1547 1907 2088 1630 1614 1051 1432 1789 1741 1791 2052
3574 3737 3446 2679 2523 3097 2779 2586 2604 3212 3113 2470 2764 2564 2830 2498 2281 2233 1840 1864 1884 1333 433 116 45 97 412 692 1014 583 768 1150 1487 1537 1747 1663 1450 1124 1364 1270 1578 1339 1832
3134 3754 3530 2888 3053 2391 902 784 1675 2487 2990 2109 1863 1526 664 1922 2125 1959 2093 1924 1172 2121 1520 1038 1127 788 721 454 787 492 1390 1313 1571 1717 1598 1869 1894 1784 1106 1032 670 645 1368
3680 3605 3636 2969 3294 2169 358 195 759 1883 2500 1976 360 473 23 2 1669 1838 1954 1672 1735 1507 1612 1479 928 398 209 392 764 1377 1694 1763 1188 1083 1867 1413 1442 1386 1469 845 1131 438 619
3580 3296 3408 3037 1979 2001 293 567 860 1705 2487 2555 2167 1284 726 1012 1837 2247 1772 1309 1142 957 841 1172 981 632 650 1064 796 1134 725 464 561 1346 1441 1516 1377 1493 1583 1581 1206 466 343
3050 3069 3058 2421 1866 1438 1376 1110 1064 1796 1611 1942 1853 2072 1588 1350 1500 1416 1472 1638 1261 1265 1007 872 862 694 577 510 1171 763 700 197 602 1250 1201 1460 1388 1809 1777 1748 1255 686 587
2739 2969 3289 1993 1860 1423 1032 775 1705 1488 1364 1640 2149 1981 1853 1879 1579 1245 1444 1489 1330 1284 1197 1016 1018 1013 936 866 982 758 706 918 589 247 712 1190 1451 1973 1767 1496 1279 881 952
2714 2435 3042 2472 2126 2007 2089 2100 2637 1975 2095 2310 1949 1921 2352 1951 1374 857 1106 1267 1294 1322 1233 1050 914 797 889 667 885 485 539 812 1117 718 642 981 1724 1481 1314 1168 962 597 439
1986 1889 2024 2299 2447 2619 2486 2646 2615 2031 2173 1714 1807 1756 1058 1156 1568 1260 1387 1249 1304 1150 1191 962 1099 1183 537 577 877 683 481 419 466 563 625 802 543 703 698 786 851 319 396

GFSSE_con_mucape_027.txt.gz
CAPE
1202 2190 3092 3310 3642 3723 3565 3510 3068 2754 2356 2392 2610 2644 2740 2628 2689 2689 2851 2671 2182 1891 1821 1256 1153 1442 1406 1503 904 1025 1257 1185 1265 1230 1113 905 791 791 843 876 583 535 759
1273 2075 3068 3254 3621 3673 3556 3430 3272 3113 2579 2585 2757 2545 2553 2640 2266 2289 2748 2695 1939 1744 1598 1442 1366 1492 1495 1620 1110 1613 1420 1392 1485 1267 920 717 606 704 605 709 245 174 438
1248 2061 2561 3343 3647 3684 3524 3472 3371 3182 2666 2684 2931 2709 2550 2631 2291 1934 1918 1875 2028 1810 1698 1682 1647 1767 1560 1620 1532 1644 1516 1469 1601 1332 853 170 759 908 1138 419 444 268 516
1142 1859 2687 3324 3564 3676 3543 3444 3393 3164 2669 2904 2934 2751 2774 2560 2422 1985 2176 2288 2127 2051 2029 1817 1845 1815 1733 1707 1597 1447 1537 1532 1294 923 376 146 632 1222 1137 769 300 343 382
1099 2035 2813 3502 3546 3528 3653 3603 3544 3438 3314 3049 2901 2681 2652 2493 2319 2134 2122 2123 2093 1974 2009 1943 1943 1896 1712 1785 1689 1878 1495 1703 875 509 490 34 367 476 569 894 517 583 534
1716 2392 3200 3435 3129 3261 3797 3766 3674 3554 3508 3393 3176 2849 2672 2466 2409 2334 2105 2089 2134 2017 2077 1984 1841 1620 1654 1767 1847 1841 1742 1380 1153 648 412 516 302 631 559 265 776 802 342
1732 2188 2717 3418 3455 3463 3612 3657 3570 3547 3486 3266 2864 2605 2449 2641 2411 2470 2188 2009 1867 1867 1675 2043 1887 1752 1637 1750 1705 2236 1506 1341 870 768 477 131 630 1231 752 1138 1041 765 309
1559 1834 2161 2998 3233 3146 2952 2991 3026 2917 2788 2647 2472 2535 2502 2403 2700 2675 2192 1998 1779 1731 1483 1807 1818 1682 1662 1801 1665 2298 1571 1206 857 598 774 545 1089 1685 1032 999 875 689 498
1452 1527 2036 2293 2213 2493 2725 2602 2638 2567 2502 2540 2766 3169 3067 2715 2486 2466 2779 2453 1893 1692 1344 1464 1818 1724 1888 2055 1737 1933 1797 1409 751 698 913 527 1336 1767 814 721 730 531 866
1318 1458 1691 1982 1988 2142 2475 3109 3013 2967 2343 2518 2860 2695 2525 2481 2453 2421 2731 2613 2000 1784 1521 1426 1660 2011 2199 1966 1998 1946 1720 1468 783 565 510 686 1477 1825 905 545 691 719 422
1285 1314 1528 1704 1781 1858 2095 2418 3196 2550 2337 2367 2367 2610 2682 2083 2110 2079 2391 2302 1955 1841 1800 1745 1460 2325 2109 1895 1922 1917 1886 1173 600 560 559 1248 1895 2201 1251 937 1402 1016 684
1447 1436 1630 1611 1642 1877 2137 2221 2389 2095 1973 1910 1958 1816 1834 1586 1457 1768 1752 2328 2003 1663 1722 2061 2546 1925 1701 1367 1431 1422 1276 957 421 408 543 1561 1950 2362 2279 1857 1559 1231 784
1777 1691 1873 1923 1942 2084 2309 2145 2143 2083 2012 2170 2039 2150 2023 1823 1302 1280 1249 1816 1700 1907 1456 2049 1912 1616 1238 881 822 1340 1188 652 418 513 321 724 1651 2526 2036 2013 2063 1063 1068
1736 1937 1988 2123 1971 1813 1946 1722 1753 1715 1803 1801 1090 1336 921 944 691 1070 1017 1161 1259 1231 1304 1386 1413 1208 850 656 352 923 1029 644 448 730 603 436 1569 2293 2151 2130 2115 1701 1439
1720 1876 2063 2365 1966 1977 1743 1388 758 543 905 1369 1108 926 1003 889 1041 1130 883 827 511 1204 1005 926 947 810 641 271 352 377 653 919 625 708 683 1598 1405 1459 2500 2211 1816 1284 1696
1655 1952 2275 2281 2095 1920 1478 1212 561 225 526 601 590 458 688 1136 899 1335 758 401 295 430 634 518 299 338 192 49 295 311 322 485 458 492 781 930 1818 1518 2048 2310 1883 1824 1238
1858 2168 2256 2266 2225 1797 1514 1281 773 947 760 503 228 1 255 900 1051 1209 1017 667 363 281 578 440 147 0 1 0 22 142 183 526 766 909 526 684 1141 1574 1629 1805 2227 2370 2003
2146 2259 2239 2393 2453 2004 1548 1023 986 1128 938 783 562 708 557 1249 1194 1260 1011 907 714 512 425 245 36 3 0 0 7 21 136 356 918 1104 942 639 850 777 1546 1777 1654 2120 2218
2147 2462 2205 2260 2248 1651 839 755 754 1020 980 1203 1162 1082 1216 994 949 1058 1088 1116 863 693 565 342 119 38 6 5 7 40 231 494 706 1150 1037 1201 798 917 737 988 1473 1430 1773
2726 2366 2039 1840 1649 1098 776 514 418 757 928 746 650 714 437 177 135 645 893 1051 933 543 546 413 128 138 51 165 548 599 452 346 293 684 1058 1123 900 804 937 838 792 909 1760
2888 2454 1963 1838 1578 714 183 93 151 262 698 775 541 107 281 176 91 267 837 647 602 404 424 302 288 297 193 251 264 157 336 387 512 670 950 1066 1082 956 1025 921 833 665 693
2735 2805 2414 1684 1213 565 120 58 126 589 720 1250 1402 1107 783 680 612 720 847 695 496 230 162 299 323 139 142 114 82 2 14 225 571 845 728 970 1151 1273 1133 1116 933 713 545
2803 2735 2335 1855 1334 457 213 731 384 480 729 627 586 798 916 879 895 721 316 275 315 231 253 237 215 171 169 148 131 169 92 51 154 529 722 855 846 1045 1244 1334 1081 820 634
2642 2595 2063 1708 1123 913 830 569 1058 667 743 521 769 565 613 654 870 577 304 412 479 414 386 385 341 231 210 190 194 311 413 384 85 169 632 556 737 896 1162 1234 1092 873 601
2418 2466 2044 1820 1223 837 333 604 905 1028 986 900 494 625 608 419 356 263 415 516 440 491 447 457 421 239 227 167 129 172 191 294 328 212 75 179 658 985 972 916 970 742 619
2306 2504 2177 1547 1139 1139 1285 1420 1761 1270 870 892 580 437 482 555 471 451 538 536 525 490 303 495 437 339 196 271 182 190 193 113 86 226 178 89 137 260 472 643 735 416 294

GFSSE_con_mucape_030.txt.gz
CAPE
1505 2304 3237 3352 3291 3090 2766 2451 2327 2463 2429 2751 2940 2775 2658 2696 2815 3081 3003 2809 2394 2399 1852 1371 1613 1504 1596 1240 1054 1288 1463 1369 1307 1037 1120 1147 1049 874 1108 713 571 565 823
1653 2400 3205 3671 3762 3612 3086 2870 2542 2623 2551 2677 2790 2625 2501 2438 2467 2464 2740 2489 2056 2010 1740 1563 1646 1708 1728 1185 1269 1307 1340 1457 1398 1262 1209 900 935 815 658 564 594 531 585
1776 2335 3030 3520 3691 3483 3263 3098 2800 2678 2611 2672 2683 2672 2480 2610 2326 2316 2309 2234 2069 1975 1819 1829 1807 1811 1715 1557 1646 1517 1564 1447 1524 1295 928 627 610 856 390 148 186 732 274
1935 2351 2803 3420 3579 3595 3519 3338 3171 2803 2650 2734 2701 2644 2452 2404 2260 2090 2315 2427 2213 2143 2030 1876 1932 1923 1685 1822 1580 1640 1595 1546 1170 788 408 533 595 999 468 700 130 902 733
2045 2357 2756 3659 3652 3192 3286 3413 3324 3184 2762 2630 2596 2674 2560 2283 2244 2235 2323 2231 2206 2109 2126 1996 1923 1790 1949 1785 1651 1737 1576 1194 1256 638 347 612 801 1048 693 352 269 316 481
2072 2468 3308 3576 3369 3187 3225 3409 3250 3160 3094 2947 2635 2686 2567 2515 2459 2262 2253 2214 2191 2155 2127 1992 1967 1782 1530 1772 1954 1640 1600 1166 1013 397 243 447 396 608 755 531 676 668 897
2088 2507 2870 3440 3610 3600 3525 3304 3150 3121 3023 2804 2733 2618 2485 2644 2536 2280 2101 2138 2058 1890 2092 1987 1762 1637 1513 1822 2025 1826 1540 1221 705 674 396 320 33 1131 488 903 901 391 496
1884 2413 2710 3254 3464 3494 3223 2980 3002 2870 2780 2685 2541 2360 2406 2408 2244 2347 2286 2017 1815 1862 1918 2124 1809 1829 1579 1588 1761 1723 1592 918 977 533 370 299 609 1660 949 1120 1017 448 524
1816 2070 2460 2575 2520 2835 2801 2826 2783 2684 2584 2430 2422 2692 2576 2498 2399 2302 2363 2342 2000 1794 1072 1884 1903 1901 1886 1998 1789 1698 1356 960 505 507 477 438 1207 1431 1229 1182 985 596 462
1516 1877 2047 2028 2088 2335 2365 2779 2754 2719 2338 2228 2378 2643 2571 2513 2512 2501 2958 2792 2048 1985 1663 1530 2003 1921 2024 2182 2053 1934 1627 1112 529 474 617 364 1490 1565 1183 950 798 901 703
1456 1548 1729 1840 2035 2088 2228 2185 2875 2321 2226 2582 2721 2508 2771 2118 2209 2247 2496 2297 1973 1812 1744 1679 1707 2248 2076 2018 2112 2012 1770 1116 568 450 463 1216 1669 1978 1061 903 1064 588 555
1215 1341 1516 1586 1658 1881 2185 2068 2291 1922 1972 2048 2074 2192 2018 1770 1674 1862 2037 1724 2111 1944 1889 1956 1953 1955 1924 1480 1407 1775 1557 916 434 409 375 1033 1360 2295 1641 1527 1753 993 731
1154 1252 1391 1418 1474 1648 1977 2043 2028 1877 1815 1772 1682 1507 1567 1614 1404 1316 1406 1340 1343 1793 1474 1955 1922 1688 1230 1279 1032 1151 893 932 381 402 298 1181 1452 2117 1867 1715 1615 1332 969
1414 1351 1575 1543 1624 1773 1956 1929 1866 1834 1816 1779 1670 1763 1583 1589 527 826 1068 1018 933 1111 1444 1334 1470 1463 1090 796 536 670 765 604 423 442 474 1012 1390 1923 2359 1998 1634 1106 1367
1654 1672 1757 1769 1769 1879 1988 1771 1681 1689 1441 1181 1262 1124 864 327 378 796 963 822 947 903 1132 997 1218 1111 942 666 465 352 375 446 442 435 611 803 1300 1413 2267 2162 1816 1365 1112
1707 1930 1966 2044 1872 1813 1807 1491 988 938 500 783 857 841 713 643 568 708 683 404 352 767 860 853 797 864 829 481 123 339 318 320 387 417 529 670 1457 1597 1708 2346 2438 2015 1506
1732 1899 2125 2016 1860 1672 1357 1246 634 402 195 351 837 432 399 196 787 779 556 331 378 249 243 188 193 99 38 257 200 108 278 182 473 602 384 608 676 1648 1521 1747 2449 2306 1807
1753 1960 2186 2232 1683 1455 1318 808 922 811 547 457 431 335 323 121 631 935 704 716 586 489 301 258 209 128 1 4 0 5 79 87 249 496 658 574 608 719 1211 1727 1804 1751 2276
1930 2056 2094 2273 1496 1367 1074 535 397 583 821 735 681 492 420 570 959 929 784 1003 741 635 477 257 190 86 62 31 8 1 10 172 373 607 821 732 568 824 677 1201 1620 1408 1731
2035 2022 1987 1955 1445 955 431 303 324 495 637 761 649 607 558 490 352 742 618 627 435 405 360 324 277 109 116 118 266 538 225 214 233 256 581 710 733 656 745 709 730 838 1471
2197 2094 2030 1483 1074 738 178 42 46 121 408 621 482 307 175 321 197 75 161 646 566 500 303 283 283 77 50 75 68 57 118 138 179 236 212 447 788 732 716 781 753 673 628
2245 2025 1838 1450 988 495 120 7 41 104 319 790 712 832 702 570 546 572 667 491 243 295 189 69 63 131 122 133 54 49 50 49 50 242 285 427 682 787 783 792 877 938 781
2379 2131 2006 1734 1287 291 10 237 325 274 391 393 453 536 527 630 638 601 328 160 81 152 156 121 101 57 79 71 108 14 9 4 37 108 320 502 670 653 717 836 852 833 796
2587 2434 2299 1772 999 234 281 216 620 560 665 628 431 376 346 334 384 410 208 296 215 196 231 214 212 207 123 86 11 79 29 26 38 53 141 466 597 584 591 566 674 758 807
2542 2357 1905 1732 1019 971 567 244 149 734 755 418 319 202 316 280 179 222 268 220 159 202 237 164 247 277 144 118 69 80 111 163 108 68 53 99 345 384 529 681 770 691 712
2402 2105 1981 1360 908 642 331 593 1355 996 617 595 246 305 286 170 54 59 160 203 246 366 345 314 263 333 182 115 109 94 88 56 63 90 68 73 61 178 317 268 398 444 284

GFSSE_con_mucape_033.txt.gz
CAPE
1574 2251 3102 2809 2569 2521 2332 2175 2099 2146 2326 2773 3125 3078 2843 2709 2569 2796 2701 2316 1904 1903 1569 1619 1503 1496 1418 1450 1536 1442 1021 944 1088 691 463 952 756 517 636 881 875 483 840
1770 2586 3373 3150 3126 2656 2507 2392 2361 2307 2226 2509 2767 2814 2687 2852 2402 2430 2404 2177 2040 1874 1682 1679 1708 1652 1431 1252 1123 1162 751 1241 1303 1019 857 810 1081 907 652 632 915 536 867
1977 2517 3116 3387 3508 2801 2626 2426 2449 2411 2226 2296 2490 2606 2588 2702 2407 2291 2262 2120 2024 1909 1857 1812 1890 1693 1547 1319 1253 1153 1205 1071 1268 1260 1020 571 581 569 479 586 758 468 456
2102 2608 2669 3131 3570 3116 2728 2533 2526 2548 2472 2451 2446 2358 2422 2480 2352 2334 2416 2379 2197 2105 1929 2012 1791 1795 1587 1634 1526 1563 1252 1179 1332 1112 590 536 521 542 171 149 666 281 259
2087 2529 2732 3709 3570 2811 2745 2856 2690 2629 2582 2536 2534 2367 2237 2311 2417 2521 2529 2358 2264 2362 2151 2080 1812 1658 1708 1709 1578 1629 1545 1397 946 623 508 635 569 528 739 140 859 776 900
2171 2429 3434 3680 3096 2770 2637 2822 2664 2621 2588 2489 2543 2511 2343 2303 2287 2300 2264 2183 2114 2173 2215 2177 1912 1473 1515 1930 1771 1664 1291 1279 937 325 522 881 761 760 482 280 265 456 498
2220 2688 3048 3550 3496 3195 2839 2691 2729 2634 2578 2548 2574 2498 2442 2505 2397 2296 2194 2220 2179 1916 2111 1984 1889 1565 1517 2010 1982 1538 1100 1193 522 368 254 621 674 1304 576 516 461 1048 614
2370 2612 2834 3356 3404 3021 2822 2714 2624 2606 2571 2652 2588 2419 2587 2742 2441 2376 2175 2004 2003 1888 1997 1872 1838 1660 1560 1995 2083 1701 1312 1306 1089 676 310 279 231 1259 766 1175 719 428 426
2370 2556 2686 2755 2609 2849 2805 2751 2712 2749 2657 2501 2365 2367 2442 2423 2336 2403 2245 2019 1914 1875 1594 1901 1869 1528 1881 1722 1928 1477 1104 1040 639 462 406 243 1096 1316 838 978 1000 514 586
2225 2395 2510 2587 2427 2540 2560 3021 2882 2764 2463 2286 2445 2731 2551 2470 2230 2207 2587 2492 1953 1695 1270 1491 1831 1827 1645 2196 1910 1561 1184 749 416 492 498 319 1451 1281 1253 1285 1172 472 485
1950 2143 2309 2296 2360 2370 2429 2428 2882 2520 2352 2120 2337 2557 2514 2172 2226 2353 2412 2206 1947 1852 1717 1597 1619 1788 1789 1778 2107 1977 1452 791 518 439 518 766 1325 1334 1266 1102 1304 929 702
1650 1784 1894 1993 2094 2112 2206 2050 2248 1889 1763 2222 2445 2116 2180 1949 1963 1943 2332 2256 1988 1961 1797 1796 1759 1833 1991 1193 1235 1798 1559 802 502 341 451 981 1305 1388 1907 1685 1416 829 974
1338 1418 1630 1767 1771 1902 2083 1965 2064 1888 1891 2017 1982 2069 1941 1500 1386 1732 1627 1615 1466 2172 1495 1650 1756 1756 1520 1215 965 999 933 821 458 297 442 926 1329 1394 1583 1650 1325 1019 745
1229 1140 1340 1502 1513 1680 1824 1989 1840 1832 1814 1513 1570 1413 1396 1382 1325 1091 1122 1144 929 1134 1301 1234 1447 1394 1329 936 866 692 706 618 528 264 321 774 1488 1541 1628 1580 1407 1406 1154
1265 1169 1338 1375 1409 1553 1691 1783 1687 1783 1575 1186 1211 1340 1460 1307 1064 126 635 765 863 776 889 1004 1051 1121 934 714 548 282 486 488 408 323 409 978 1865 1650 1364 1597 1872 1317 1225
1468 1353 1563 1535 1540 1600 1649 1650 1432 1469 1390 921 637 729 1001 549 206 291 708 655 520 563 523 821 757 688 757 705 441 404 302 219 276 373 422 541 1707 1648 1504 1581 1932 1942 1334
1699 1583 1728 1701 1637 1613 1781 1424 1393 1051 681 479 427 479 546 640 466 561 542 435 210 225 375 583 567 423 404 369 342 292 154 237 264 253 325 410 524 1687 1553 1722 1921 2208 2426
1884 1801 1915 1972 1683 1492 1500 1253 659 601 461 269 391 513 437 266 319 228 627 585 326 425 300 189 114 97 65 17 0 70 112 51 160 107 385 498 459 561 1197 1699 1359 1392 2282
1781 1801 2008 1837 1375 1211 1112 813 462 524 482 668 632 464 372 264 290 145 412 540 380 383 276 242 180 128 77 34 0 0 0 0 41 155 282 444 545 568 522 857 1538 1261 1675
1733 1889 2101 1753 1268 1058 943 421 172 186 454 646 633 547 466 367 658 697 716 571 537 351 301 313 206 138 68 57 31 59 20 25 9 133 252 483 587 607 603 598 593 682 1260
1924 1972 2147 1715 1275 1016 532 128 103 173 312 530 497 426 217 146 161 105 145 148 459 433 316 262 168 187 98 39 13 26 0 6 104 171 211 231 380 576 590 599 613 599 583
2011 2050 1974 1533 1133 686 277 92 34 90 333 496 534 558 513 491 410 405 502 443 105 79 103 60 33 18 57 57 22 53 27 13 39 84 112 163 235 362 372 466 556 612 591
2031 1998 1718 1451 942 520 60 330 201 196 268 340 477 514 336 495 479 410 371 235 107 83 95 76 54 26 12 44 66 40 30 17 21 27 175 282 354 409 474 563 592 628 669
2048 1900 1828 1444 757 193 274 449 393 490 554 628 365 364 271 232 166 134 132 137 71 43 97 113 92 83 71 43 35 61 36 23 1 18 78 76 248 421 481 514 433 433 584
2055 2213 1966 1356 776 290 405 264 290 755 619 438 244 316 311 120 56 74 148 98 80 156 180 182 113 150 207 123 61 17 27 56 76 42 35 21 46 203 338 388 494 649 632
2171 2025 1636 1420 792 841 469 606 1149 839 700 401 295 226 131 41 0 0 69 102 231 298 369 234 181 275 261 75 71 72 38 34 67 106 88 51 10 62 177 194 272 505 479

GFSSE_con_mucape_036.txt.gz
CAPE
1361 1993 2906 2827 2304 2160 2083 2141 2405 2643 2810 2929 2955 2946 2774 2627 2498 2358 2312 2309 2025 1765 1675 1626 1462 1657 1670 1571 1381 1283 1178 1092 861 564 662 1035 979 391 400 782 413 227 702
1478 2247 3048 3096 2636 2246 2254 2261 2205 2561 2601 2867 3047 2943 2851 2691 2603 2365 2287 2069 1985 1831 1850 1731 1578 1796 1527 1558 1450 1124 1050 1069 583 515 724 759 397 751 830 783 775 588 631
1972 2396 2776 3225 3045 2379 2278 2309 2171 2352 2151 2360 2827 2888 2889 3053 2708 2195 2244 2073 2023 1889 1776 1959 1775 1752 1477 1176 1089 971 1327 1108 1576 939 997 803 857 594 353 818 759 818 699
2098 2572 2613 3238 3267 2706 2419 2408 2371 2164 2142 2245 2379 2517 2607 2571 2379 2249 2211 2033 1942 1758 1943 1858 1780 1886 1459 1604 1351 1402 1333 1411 1317 1203 801 567 308 397 440 712 496 435 400
2335 2514 2531 3506 3327 2669 2490 2688 2646 2522 2271 2269 2235 2315 2446 2361 2348 2487 2373 2324 2215 2168 2035 2042 1510 1806 1735 1834 1807 1330 1228 1319 1192 795 487 585 794 297 135 849 343 269 217
2376 2476 3219 3490 2793 2667 2587 2566 2519 2503 2512 2360 2212 2120 2266 2400 2509 2492 2252 2164 2134 2248 2258 1988 1822 1559 1772 1741 1689 1517 1453 1306 1035 447 515 921 507 819 169 993 973 969 403
2299 2710 2922 3445 3327 2973 2591 2576 2573 2522 2429 2371 2340 2272 2223 2285 2269 2309 2146 2174 2101 2192 2129 2125 1824 1341 1600 1929 1353 1344 1202 1240 419 416 592 942 699 1138 358 298 408 587 317
2397 2793 2877 3218 3232 2733 2627 2547 2533 2492 2417 2377 2391 2311 2391 2423 2332 2262 2095 2020 2094 1787 2051 1798 1767 1392 1622 1827 1048 1232 1183 1038 855 561 500 605 665 1217 543 471 904 950 324
2451 2665 2808 2726 2588 2686 2640 2392 2442 2434 2415 2534 2366 2215 2588 2619 2356 2433 2307 1943 1879 1823 1715 1766 1710 1654 1477 1978 1710 1461 1192 923 902 680 438 390 656 1019 800 1015 567 469 504
2363 2526 2639 2683 2454 2433 2359 2832 2592 2695 2560 2337 2132 2164 2332 2345 2281 2258 2593 2414 1981 1649 1060 1442 1611 1615 1928 1859 1904 1239 937 1104 604 541 490 400 836 867 795 1084 958 532 517
2082 2101 2263 2511 2423 2464 2449 2538 3045 2606 2376 2037 2065 2493 2313 2064 2007 2239 2270 2065 1965 1866 1632 1473 1505 1668 1619 2120 1835 1357 966 966 584 483 567 498 1169 1187 1187 1528 1150 604 513
1653 1941 2123 2240 2307 2310 2331 2264 2311 2065 1885 1696 2011 2111 2061 2070 1878 2224 2481 2036 1921 1838 1768 1712 1627 1654 1733 1203 1656 1850 1407 852 710 444 601 754 1274 883 1316 1332 1455 1075 783
1476 1674 1875 1936 2019 2023 2101 2018 2073 1864 1667 1826 2221 2039 1967 1865 1560 1599 1406 1383 1438 1986 1630 1873 1936 1774 1325 1129 1066 1054 1353 906 557 369 554 963 1383 1151 1097 1712 1407 966 995
1293 1392 1548 1636 1771 1711 1841 1737 1825 1628 1614 1782 1653 1652 1597 1289 1042 977 1046 1127 1092 1232 1438 1153 1394 1459 1332 1002 859 741 767 707 643 362 443 978 1243 1442 1521 1495 1485 1018 849
1122 1162 1180 1351 1430 1413 1558 1522 1470 1357 1402 1400 1137 1083 909 848 899 760 311 747 816 773 890 1011 1066 1089 936 865 666 492 400 655 614 466 454 738 1306 1430 1849 1305 875 1149 1245
1247 1018 950 1125 1264 1278 1067 914 769 815 928 853 720 796 887 628 420 385 249 446 606 637 668 714 767 788 853 708 589 450 274 265 326 451 455 755 1409 1383 1537 1601 1220 1564 1422
1370 1155 1056 1046 1182 833 1021 1010 832 552 578 589 588 421 291 659 629 302 289 388 392 255 288 330 515 644 459 477 481 442 282 193 211 201 378 544 644 1178 1578 1431 1452 1840 1804
1507 1345 1286 1362 1036 1196 1016 961 687 603 434 314 113 189 250 404 383 309 318 269 474 363 193 193 187 218 169 130 115 106 108 154 95 71 218 582 663 552 1189 1667 1376 1377 1420
1632 1586 1486 1385 1293 1033 1011 813 528 464 289 338 337 274 343 329 242 224 142 244 439 287 326 306 197 162 142 120 86 0 0 0 0 14 158 327 542 852 697 918 1373 1276 1495
1512 1620 1650 1506 1189 988 380 621 229 137 263 225 303 256 360 193 356 492 424 583 525 477 351 241 237 230 170 126 65 27 0 12 0 31 85 279 585 690 904 861 1090 955 1434
1442 1511 1724 1422 1090 727 580 219 42 88 104 282 255 249 240 160 210 115 88 202 165 318 290 210 172 185 154 160 76 25 23 26 79 154 190 257 458 815 834 1105 1105 1073 1043
1510 1629 1712 1369 1053 646 126 20 18 89 204 227 187 498 487 454 373 324 329 399 300 71 51 66 89 47 31 35 50 20 39 39 38 61 148 232 268 437 777 823 882 835 877
1660 1640 1623 1243 814 235 55 143 133 136 166 314 283 358 247 278 253 192 130 84 61 61 52 77 80 68 201 29 52 45 17 25 9 34 90 165 332 380 515 631 742 830 787
1614 1654 1495 1157 507 89 253 184 199 384 377 378 309 241 188 155 96 42 76 55 43 31 30 38 85 117 97 44 87 118 57 13 30 11 45 37 199 281 359 421 597 629 662
766 1146 1534 809 408 82 380 579 547 648 501 343 242 250 177 63 0 28 45 40 38 78 110 155 117 111 98 88 68 41 76 96 121 114 44 24 56 136 313 463 424 544 623
766 1077 1680 972 340 197 234 553 707 623 466 304 253 161 37 0 0 0 54 53 68 114 213 118 105 108 137 149 145 84 41 90 128 37 22 21 53 75 105 138 198 435 638

GFSSE_con_mucape_042.txt.gz
CAPE
1133 1638 3006 2662 2365 2593 2683 3018 3177 3228 2900 2739 2821 2575 2550 2435 2335 2445 2471 1304 1807 2104 1805 1670 1510 1427 1479 1411 1338 1389 1296 1143 891 808 972 745 865 772 546 579 346 128 290
1233 1502 2941 2994 2688 2644 2746 3036 3171 3073 3003 2948 2768 2540 2362 2372 2281 2176 2384 1560 1440 1674 1687 1633 1775 1834 1694 1666 1466 1320 1086 804 666 1217 1222 386 687 734 354 335 642 457 257
1314 1691 2174 3028 2880 2616 2398 2845 2847 2721 2340 3180 3029 2535 2253 2259 2059 1847 1928 1894 780 346 1475 1772 1958 1812 1919 1614 1273 1341 903 745 737 1057 552 642 464 1038 873 553 716 942 699
1338 1629 1957 3029 3119 2628 2661 2609 2726 2589 2391 2747 2893 2578 2258 2355 1863 1743 1825 1832 1207 1182 949 1540 1927 1667 1491 1429 1118 1459 903 1139 1104 965 722 31 212 882 788 888 877 947 330
1415 1652 2689 3072 2955 2604 2525 2608 2772 2607 2329 2326 2340 2277 2161 2038 2025 2071 1929 1762 1376 1602 732 930 1878 1603 1416 1197 1574 1416 1352 1293 1198 1106 912 207 26 773 816 994 1018 498 27
1541 1715 2651 3272 2736 2631 2524 2428 2476 2441 2472 2356 2243 2233 2261 2253 2238 2133 2207 1965 1715 1634 1835 1295 1421 1608 1868 1579 1451 1543 1529 1493 1239 244 643 388 415 402 546 348 85 49 679
1812 1947 2345 3368 3196 2723 2616 2517 2440 2423 2356 2323 2328 2356 2320 2298 2305 1943 2174 2095 2069 1748 1798 1958 1296 1072 1934 1799 1436 1394 1440 1296 603 207 181 97 529 371 635 495 309 120 604
1781 1946 2261 2882 3122 2753 2645 2706 2597 2486 2362 2226 2168 2314 2390 2388 2074 2208 2082 2060 1925 1845 1667 1951 1889 1358 1590 1764 1705 1534 1447 1023 486 387 488 273 956 714 277 827 824 714 477
1936 2132 2493 2398 2865 2786 2437 2637 2654 2466 2283 2390 2214 2216 2262 2317 2356 2209 2061 1922 1888 1700 1627 1551 1596 1668 1725 1928 1596 1523 1420 1120 856 690 691 481 885 658 539 359 699 651 276
2192 2277 2254 2535 2591 2594 2508 2614 2540 1980 2169 2386 2252 2252 2374 2372 2205 2174 2117 1986 1852 1622 1430 1561 1643 1455 2123 2395 1409 1082 977 982 995 777 972 953 1453 994 783 670 878 966 579
2328 2298 2412 2459 2373 2519 2354 2580 2610 2371 2324 2315 2357 1985 2199 1917 1777 1894 1823 1720 1891 1628 1191 1407 1545 1602 1790 1852 1444 1176 1212 1075 961 811 1638 1463 1369 652 979 1017 961 731 471
2211 2249 2425 2410 2353 2473 1970 2306 2140 2184 2241 1757 1514 1881 1811 1438 1488 1392 1614 1668 1794 1857 1751 1586 1504 1559 1544 1089 1229 1229 991 763 884 1349 1617 1514 1059 686 990 1769 1301 1131 717
2126 2238 2434 2410 2288 2193 1831 1890 2749 1911 1889 2085 2099 1995 2458 1986 1802 1434 2078 1910 2007 1992 1700 1381 1484 1217 867 1444 1032 825 462 641 690 835 1029 1348 1224 957 917 1760 1676 1253 999
2104 2255 2325 2388 2277 2217 2051 1776 1790 1445 1570 2245 2128 2177 2717 3622 2149 1919 2242 1574 2474 2940 1985 1534 999 1128 1355 1167 1026 1115 937 681 426 340 964 1384 1389 1367 1046 1146 1641 1722 1520
2237 2399 2506 2549 2522 2405 2454 2359 2716 2212 1313 1361 1884 720 1313 1830 1402 1386 1711 1304 1897 2727 2038 2007 1839 1435 1408 1407 1301 1169 1020 955 825 617 417 1240 1349 1756 1402 1412 1591 1636 1844
2334 2390 2176 2384 2579 2500 2658 2396 1434 975 808 648 671 537 437 819 1029 1127 830 844 955 2065 2888 3053 2058 1433 1218 1195 1388 1416 1353 1119 999 931 826 915 1683 1846 1735 1506 2169 1761 1414
2570 2462 2459 1390 2121 2549 2119 1587 1772 803 502 521 276 382 668 612 1064 1571 2359 1778 966 1337 1880 2364 1867 1788 1482 1259 1151 1204 1238 1243 1091 1164 1303 974 1217 1433 1761 2040 2088 1912 1554
2925 2788 1301 502 516 1015 1902 1792 2139 1442 860 844 310 234 296 1117 1475 1548 1118 1525 1273 2620 3047 2824 1532 2408 1880 1563 1759 1470 1073 1006 945 1018 1147 1154 916 898 1363 1949 1865 1777 1557
2801 2694 1040 699 981 1065 1167 2050 1169 995 645 866 297 497 235 1195 1436 2251 2149 1606 1706 1186 1587 1228 1097 1379 1560 1348 955 1027 1020 1013 780 542 662 1094 1168 986 1149 1885 1787 1684 1670
2389 1263 173 149 714 841 1668 2336 1515 725 279 40 1034 842 648 1826 1808 1883 1904 1207 1401 1958 2369 2033 1527 1378 1021 892 892 635 774 912 735 382 374 711 1017 973 855 1115 1518 1299 1755
1051 0 0 138 1611 1612 1834 1846 1243 219 212 458 150 346 1119 937 845 1805 2018 1539 1477 1466 1241 1357 1289 1147 1569 979 1099 618 630 928 960 625 478 218 240 310 552 1119 2864 1521 1286
822 979 1052 1186 2635 2850 2205 1333 904 172 392 292 380 632 1296 549 1224 1301 1229 1176 1337 1516 1494 1274 1326 1538 1101 1215 817 660 713 775 705 831 736 686 713 412 736 1593 1992 1877 1837
1278 1740 1676 2142 2664 2269 1122 949 696 708 455 371 691 1194 1370 1035 956 1025 1063 1169 1315 1247 513 1080 1112 1155 619 613 813 775 980 322 1230 782 975 796 862 813 858 1074 1428 1570 1687
1674 1702 1541 1818 2308 1517 1385 1120 899 609 607 1350 1103 1756 1075 976 823 705 819 804 944 781 958 990 995 1157 1081 931 662 740 914 1257 1240 1214 1170 1080 1002 857 1124 1409 1385 1561 1611
1027 1984 2138 2266 1702 1422 1536 1350 1535 1229 1724 1183 1175 1349 1229 798 460 368 585 662 935 1457 1194 1145 1174 1114 1033 1002 995 594 716 1065 1344 1322 1118 629 804 449 376 661 1168 1708 1403
898 1844 2161 2095 1485 1542 1432 1867 1872 1692 1593 1325 1255 718 245 149 149 384 549 381 638 1105 1128 1156 1213 1032 813 771 591 512 1008 954 838 1541 1388 1120 887 217 124 262 511 946 730

GFSSE_con_mucape_045.txt.gz
CAPE
1258 1544 3063 2402 2157 2292 2687 3171 2758 2636 2290 2223 2168 2288 2387 2330 2201 1202 1810 1723 1891 1856 1762 1590 1487 1359 1164 1353 1357 1418 1230 1103 696 905 783 963 861 863 605 550 765 0 572
1285 1429 3003 3024 2439 2402 2540 3086 3114 2897 2264 2275 2166 2323 2246 2176 2100 1851 860 1509 1720 1731 1595 1596 1514 1818 1818 1668 1613 1381 1107 751 1228 1155 543 1028 834 295 469 478 502 737 572
1296 1521 1994 3196 2917 2545 2672 2666 2627 2818 2328 2263 2004 1940 2102 2047 1902 1893 1680 647 231 397 1499 1730 1819 1805 1646 1577 1508 1110 814 647 1157 1324 518 312 741 577 514 830 980 625 168
1417 1456 1538 3065 3159 2771 2675 2653 2576 2397 2563 2714 2155 1952 1934 2011 1776 1661 1645 1206 436 699 932 1655 1758 1768 1923 1367 1316 939 879 988 1006 882 773 460 389 797 814 901 1121 613 696
1372 1750 2297 2909 2741 2742 2684 2584 2630 2461 2498 2500 2342 2099 1761 1719 1697 1811 1707 1255 1402 1571 529 1291 1505 1459 1382 1087 1519 1228 1341 1315 1040 852 569 391 62 830 1133 1035 976 245 6
1881 2296 2708 2958 2621 2540 2545 2462 2456 2405 2331 2276 2393 2229 2063 1887 1993 1946 1830 1563 1302 1466 1518 855 1336 1566 1430 1575 1536 1485 1489 1424 1278 966 928 250 658 1162 822 533 183 234 793
2409 2389 2526 3279 2844 2548 2472 2416 2429 2397 2331 2285 2211 2092 2158 2128 2080 1852 2085 1876 1626 1456 1707 1824 1239 1393 1904 1801 1356 1614 1512 1586 1206 41 466 92 524 987 744 133 494 25 795
1926 1992 2361 3100 2879 2620 2544 2471 2492 2435 2332 2319 2337 2394 2223 2128 1933 1949 1953 1782 1879 1782 1613 1737 1574 1050 1849 1828 1323 1550 1473 1212 841 116 70 284 1040 419 927 843 652 117 729
1794 2449 2313 2340 2827 2623 2487 2737 2587 2482 2315 2200 2185 2396 2142 1884 2102 2073 1917 1883 1660 1532 1527 1621 1741 1527 1440 1777 1706 1544 1465 998 1067 671 280 990 1652 764 390 789 787 679 457
1714 2374 2255 2685 2932 2762 2222 2637 2691 2463 2260 2522 2209 2290 2369 2166 2072 1958 1843 1744 1784 1430 1418 1466 1492 1536 1513 1966 1711 1607 1384 1365 948 845 378 581 1540 605 647 388 987 907 183
1800 1894 2550 2663 2627 2487 2392 2342 2383 2062 2191 2272 2169 2074 2196 1580 1991 1830 1777 1577 1727 1516 967 1333 1459 1473 1694 1917 1506 1239 1111 776 563 898 1224 1434 1730 770 973 838 919 1023 598
1875 1863 2325 2294 2586 2399 1954 2563 1876 2119 1716 1843 1840 2011 1562 1727 1553 1201 1775 1583 1634 1662 1598 1272 1404 1504 1430 1011 1224 1264 1048 873 849 1086 1500 2078 1785 782 995 1676 1154 1072 787
1761 1757 2056 2410 2997 2490 2092 2137 1680 1746 1684 1578 1991 2326 1934 1843 2260 1172 2601 1227 1365 1706 1364 1484 1337 1041 816 1308 1383 739 491 635 909 880 1312 1984 1845 931 947 1585 1649 1314 1244
1704 1773 2287 2188 2375 2930 3122 1540 1607 1763 2024 2662 1628 2228 2348 2900 3019 2146 2577 1985 1897 1756 1963 718 886 1168 1427 1266 1106 1428 1235 1068 973 914 1892 1946 1907 1396 1117 1282 2103 1691 1409
1790 2013 3019 2298 2500 2440 2660 2745 2874 2142 1863 1773 1611 1171 1084 1803 1880 1261 1178 1335 1358 2818 1147 2639 2282 1841 1612 1399 1181 1297 1187 1509 1103 788 1489 2178 1795 1948 1621 1404 1696 1730 1924
1983 2670 2627 2467 2743 2337 3488 2274 1972 1461 1229 1055 938 1004 843 769 881 634 727 738 705 1083 1577 2089 3133 1591 1664 1749 1070 1400 1632 1568 1291 1555 855 1751 2326 2114 1976 1680 2189 2316 1730
2235 2237 2415 2916 2678 2699 2520 1903 1460 1655 625 612 858 755 718 591 616 743 632 498 812 1190 2390 2310 2630 2377 2050 1794 1854 1856 1749 1633 919 1577 1462 1547 1283 1735 2080 2169 2149 2356 2271
2611 725 1540 2574 819 1432 1679 2490 2120 1474 1102 1312 710 459 456 523 535 1074 1667 1140 1267 1789 2013 2800 2960 1768 2490 2125 2751 1417 1637 1580 1999 1559 1418 1106 1847 879 1490 1916 1976 2225 2295
1457 388 1136 1371 467 847 1865 2049 2076 1038 1447 582 749 383 239 275 949 1764 1125 1281 1851 1265 2745 2176 1636 2220 1779 1854 1922 2311 1613 1590 1666 789 974 1233 1421 1228 1074 1316 1810 1969 1924
1222 2495 1793 596 302 239 950 2133 1082 212 168 186 515 409 773 491 699 2344 1913 2414 2175 2835 3019 1511 1858 2155 1341 1565 1116 627 1444 1380 929 924 653 527 861 1163 987 1315 2039 1143 1976
458 453 111 53 235 657 1630 2141 1274 294 72 110 241 345 444 883 1742 2307 2883 2510 2584 2643 1873 1630 1659 1968 989 1030 1287 825 1051 1105 1094 1010 991 313 565 1076 1041 983 1453 1601 1360
888 448 862 387 754 1736 2240 1774 1241 306 223 352 324 762 845 1120 1297 1308 1513 1943 1481 1807 1946 1578 1675 1790 1621 1631 1365 1881 965 765 529 654 758 791 428 462 430 1029 1375 2314 2091
1392 1007 2402 1367 2363 2673 1668 1328 842 688 692 270 530 836 860 1217 1066 1034 1153 1073 1432 1584 471 2383 1338 1461 2063 1978 1405 1003 905 1223 936 955 1460 1176 1517 1540 561 1091 980 167 2247
1507 2213 2504 2788 2906 1979 1415 1179 917 616 675 1744 1426 1532 1640 1064 936 626 705 947 917 918 1795 1209 2103 1606 1611 1372 1672 1829 950 1285 1330 1198 1926 2092 1407 1250 1431 1423 1529 1468 1111
1944 1689 1449 2975 2602 1883 1824 1433 1549 1763 1793 1467 1487 1475 1849 1246 531 473 846 1458 1365 1675 1789 1671 1451 1567 1717 1438 1409 1243 1270 1078 903 1570 809 1009 629 448 637 829 1240 1281 935
1590 1985 2440 2877 2288 1984 1720 1869 1779 1642 1697 1475 1822 1848 1258 386 362 635 791 790 877 1118 1549 1595 1531 1112 1329 1355 1814 826 711 1256 1622 1170 1485 695 737 155 450 109 181 191 342

GFSSE_con_mucape_048.txt.gz
CAPE
966 1643 2823 2928 2932 3075 3059 3083 2743 2633 2320 2341 2377 2643 2556 2327 1370 1831 1835 1947 1947 1917 1838 1507 1366 1133 1366 1354 1377 1179 1108 659 910 820 996 848 1078 962 784 552 708 317 181
935 1533 2863 3002 3089 3165 3113 3087 3008 2795 2582 2489 2534 2423 2477 2160 1750 1267 1530 1915 1850 1776 1636 1589 1654 1634 1652 1690 1520 1174 834 956 1153 636 1345 586 360 573 682 678 1113 609 405
1033 1635 1978 3049 3070 2902 3179 3331 3047 2710 2505 2331 2390 2261 2278 1919 1749 1400 1409 402 653 1136 1644 1645 1590 1593 1736 1710 1171 783 521 1162 1204 865 1093 198 180 557 789 759 355 236 261
1019 1329 1845 3159 3115 2924 3114 3071 3091 2846 2509 2471 2497 2080 2131 2247 1766 1702 1663 507 350 664 1417 1561 1612 1720 1673 1220 1204 1022 829 899 1102 1160 697 433 141 849 879 1057 620 656 672
1298 1193 2254 3315 3084 2680 2792 2994 3017 2980 2827 2643 2425 2262 2119 1851 1444 1442 1484 1497 1211 1392 482 1327 1381 1336 1496 1233 1451 1027 1183 1206 1067 945 801 550 234 914 1017 1115 483 25 355
1667 1312 2729 3087 2718 2680 2608 2926 2783 2483 2920 2733 2363 1996 1831 1709 1563 1564 1504 1308 1089 1358 1010 958 1143 1341 1143 1533 1423 1368 1430 1332 1123 1037 499 1250 588 1313 1098 633 357 707 294
1901 1522 2267 3090 2718 2457 2416 2469 2445 2527 2431 2313 2273 2143 1951 1902 1838 1778 1731 1541 1370 1275 1453 1485 1192 1385 1493 1773 1497 1586 1568 1457 1131 1273 583 397 1101 1434 445 286 149 715 809
2112 1819 1975 2872 2692 2337 2218 2215 2201 2168 2166 2147 2102 2098 2048 1988 1916 1731 1752 1531 1590 1487 1368 1585 1166 1270 1822 1756 1281 1736 1716 1611 1139 843 509 541 1116 1581 615 252 495 328 668
2054 2316 2360 2121 2477 2391 2272 2219 2222 2141 2085 2150 2253 2371 2101 2024 1650 1665 1615 1624 1505 1383 1429 1358 1637 1286 1367 1713 1418 1517 1712 1284 934 1087 555 530 1257 1557 1183 1058 916 341 769
2444 2350 2209 2661 2295 2306 1823 2598 2457 2441 2156 2092 1979 2173 1986 1667 1600 1841 1992 2041 1606 1226 1221 1284 1331 1604 1799 2025 1947 1786 1659 1492 644 811 704 611 1606 1035 733 781 717 709 437
2287 2478 2450 2676 3157 2919 2505 2306 2944 2171 1926 2308 2059 1971 2147 1931 1555 1511 1634 1979 1471 1379 1030 1294 1360 1720 1641 1722 1910 1643 1277 572 294 697 867 1389 1538 1413 670 949 1222 1364 458
1960 2396 2533 2313 2508 2632 1736 2620 2176 2010 1686 2078 2155 2172 1583 886 888 668 1314 1543 1346 1487 1330 1191 1356 1660 1402 1213 1683 1498 944 653 668 735 1133 1621 1828 1846 1620 1678 1566 1462 763
1836 2270 2613 2762 2504 2284 2510 2151 1929 1970 1398 1452 1503 1967 1214 947 211 877 924 1377 1596 1649 1389 1490 1339 1138 1128 964 1205 1130 810 752 704 956 1031 1894 1961 1819 1524 1944 1967 1422 1103
1690 1832 1960 2852 2911 2899 1656 1096 2434 1309 564 30 1277 1947 1308 1102 1418 1033 1583 1850 1548 1987 1510 636 323 613 847 1224 1420 889 1146 789 531 512 1401 2106 1999 1865 1837 2026 2262 1889 1544
1948 2149 2533 2967 3498 3156 2652 2083 2473 1557 463 435 896 2250 2152 1725 1792 1802 927 1013 1058 1792 1649 742 18 32 632 1582 1557 1159 1061 786 1183 1239 1705 1941 1599 1874 1851 1879 2021 1814 1917
673 923 1072 2499 2862 2437 2087 1982 1602 1710 1745 1040 944 1111 1382 1348 1263 1105 232 334 466 1343 762 902 712 494 845 1952 1969 1336 1016 1201 1196 1287 1274 1295 1738 1721 2036 2315 2313 2271 2048
125 6 143 217 1873 2054 2264 1553 1902 1533 1409 599 437 627 1486 1142 867 689 235 414 489 291 32 101 808 1346 1257 1744 1975 922 1771 1674 1419 1490 987 1209 1365 2114 2335 2266 2408 2176 2125
70 11 0 92 1603 1546 2253 2556 2455 2015 1126 754 607 769 540 748 770 492 338 1081 344 192 7 265 699 1130 1681 1501 1570 1746 765 1167 1684 1224 1510 1351 1318 1011 1692 2078 1973 2038 2090
245 1 0 495 1312 1352 1685 1964 2015 561 487 589 771 340 113 121 336 442 1208 1330 1639 930 479 376 1962 1562 1879 1806 1506 843 706 1603 1939 1144 1171 946 1356 1196 1312 1473 1392 1186 1660
85 157 194 1605 789 608 1658 1946 438 178 59 79 237 206 183 491 524 1085 1378 1683 2137 1968 1494 1036 1570 1286 1095 1304 1440 1092 1380 1410 1433 1145 979 892 693 1169 1419 1018 775 675 1139
730 1837 863 548 332 1312 2263 2217 392 200 63 19 111 86 184 331 761 1060 777 1390 1502 1835 1457 1472 1254 1177 1692 1312 1197 1059 1050 1315 1275 1175 944 768 365 1032 659 515 1058 1097 1217
1340 1178 1437 761 2038 2624 2999 2955 1376 321 152 138 34 126 178 464 719 1578 1260 806 663 1329 1289 1395 1419 1622 1584 1535 973 955 737 866 999 746 532 685 450 775 781 866 650 918 757
1384 1253 992 1511 2382 3250 2773 1798 1445 1270 166 166 139 338 438 739 700 641 978 1283 1391 1622 1377 1753 1971 1582 1417 1699 1537 1005 809 767 768 810 416 302 681 577 1013 818 559 209 136
1744 1545 2376 2742 2730 3253 3103 1894 2144 2016 1710 1354 1817 1238 1022 1407 1243 1266 1379 1275 1152 1671 1855 1542 1665 1599 1472 1188 1402 878 676 691 778 402 226 495 412 625 716 773 764 191 68
1527 2023 1882 2972 3099 2778 2962 2988 2407 2445 2448 1863 1998 1713 1770 811 839 709 847 1342 1565 1693 1877 1970 2179 1925 1662 1083 1252 1020 756 598 734 810 384 527 156 100 161 386 474 581 238
1805 1982 1613 3056 3299 3115 2798 3073 2743 2773 2604 1909 1636 1611 1398 1503 749 1300 845 993 1185 1387 1630 1774 1330 1259 1538 1434 1162 1188 950 799 769 811 606 298 64 127 165 160 151 76 82